Time,TemperatureF,DewpointF,PressureIn,WindDirection,WindDirectionDegrees,WindSpeedMPH,WindSpeedGustMPH,Humidity,HourlyPrecipIn,Conditions,Clouds,dailyrainin,SoftwareType,DateUTC
2013-01-12 00:04:00,33.6,20.0,28.23,NW,315,5.4,13.6,57,0.00,,---,0.00,VWS V14.00,2013-01-12 06:04:00,
2013-01-12 00:09:00,33.1,19.1,28.26,NW,311,8.1,8.1,56,0.00,,---,0.00,VWS V14.00,2013-01-12 06:09:00,
2013-01-12 00:14:00,32.7,19.2,28.26,NNW,328,8.1,8.1,57,0.00,,---,0.00,VWS V14.00,2013-01-12 06:14:00,
2013-01-12 00:20:00,32.4,18.8,28.26,NW,309,8.7,9.6,57,0.00,,---,0.00,VWS V14.00,2013-01-12 06:20:00,
2013-01-12 00:25:00,31.8,17.9,28.29,West,259,5.8,8.3,56,0.00,,---,0.00,VWS V14.00,2013-01-12 06:25:00,
2013-01-12 00:30:00,31.5,18.0,28.29,West,267,4.0,6.7,57,0.00,,---,0.00,VWS V14.00,2013-01-12 06:30:00,
2013-01-12 00:35:00,31.1,18.1,28.29,NW,321,5.4,8.1,58,0.00,,---,0.00,VWS V14.00,2013-01-12 06:35:00,
2013-01-12 00:40:00,30.9,17.9,28.29,NW,308,8.1,10.1,58,0.00,,---,0.00,VWS V14.00,2013-01-12 06:40:00,
2013-01-12 00:45:00,30.7,17.7,28.29,WNW,301,3.1,5.4,58,0.00,,---,0.00,VWS V14.00,2013-01-12 06:45:00,
2013-01-12 00:50:00,30.6,18.0,28.29,NW,305,9.2,9.2,59,0.00,,---,0.00,VWS V14.00,2013-01-12 06:50:00,
2013-01-12 00:55:00,30.4,18.2,28.29,West,275,3.1,3.1,60,0.00,,---,0.00,VWS V14.00,2013-01-12 06:55:00,
2013-01-12 01:00:00,30.2,18.4,28.29,NW,308,6.3,6.3,61,0.00,,---,0.00,VWS V14.00,2013-01-12 07:00:00,
2013-01-12 01:05:00,30.0,17.8,28.29,WNW,295,6.3,6.3,60,0.00,,---,0.00,VWS V14.00,2013-01-12 07:05:00,
2013-01-12 01:10:00,30.0,17.8,28.32,WNW,302,3.1,6.3,60,0.00,,---,0.00,VWS V14.00,2013-01-12 07:10:00,
2013-01-12 01:15:00,29.8,17.7,28.32,NNW,328,5.8,6.3,60,0.00,,---,0.00,VWS V14.00,2013-01-12 07:15:00,
2013-01-12 01:20:00,29.7,17.1,28.32,WNW,302,5.8,8.1,59,0.00,,---,0.00,VWS V14.00,2013-01-12 07:20:00,
2013-01-12 01:25:00,29.7,17.1,28.32,West,278,2.7,5.8,59,0.00,,---,0.00,VWS V14.00,2013-01-12 07:25:00,
2013-01-12 01:31:00,29.7,17.5,28.32,WNW,292,2.7,3.6,60,0.00,,---,0.00,VWS V14.00,2013-01-12 07:31:00,
2013-01-12 01:36:00,29.5,17.7,28.32,WNW,289,5.8,6.3,61,0.00,,---,0.00,VWS V14.00,2013-01-12 07:36:00,
2013-01-12 01:41:00,29.3,16.8,28.32,WNW,303,8.7,8.7,59,0.00,,---,0.00,VWS V14.00,2013-01-12 07:41:00,
2013-01-12 01:46:00,28.9,15.2,28.32,NW,313,3.1,10.5,56,0.00,,---,0.00,VWS V14.00,2013-01-12 07:46:00,
2013-01-12 01:51:00,28.6,13.6,28.32,West,278,4.9,4.9,53,0.00,,---,0.00,VWS V14.00,2013-01-12 07:51:00,
2013-01-12 01:56:00,28.4,13.5,28.32,NW,321,5.4,5.4,53,0.00,,---,0.00,VWS V14.00,2013-01-12 07:56:00,
2013-01-12 02:01:00,28.0,13.6,28.32,WNW,291,6.7,8.3,54,0.00,,---,0.00,VWS V14.00,2013-01-12 08:01:00,
2013-01-12 02:06:00,28.0,13.6,28.35,NW,323,6.3,6.3,54,0.00,,---,0.00,VWS V14.00,2013-01-12 08:06:00,
2013-01-12 02:11:00,27.9,13.0,28.35,NW,309,3.1,5.8,53,0.00,,---,0.00,VWS V14.00,2013-01-12 08:11:00,
2013-01-12 02:16:00,27.9,13.0,28.35,NNW,332,4.0,4.9,53,0.00,,---,0.00,VWS V14.00,2013-01-12 08:16:00,
2013-01-12 02:21:00,27.7,12.8,28.38,NNW,328,4.9,8.1,53,0.00,,---,0.00,VWS V14.00,2013-01-12 08:21:00,
2013-01-12 02:26:00,27.7,12.4,28.38,NW,306,6.3,6.3,52,0.00,,---,0.00,VWS V14.00,2013-01-12 08:26:00,
2013-01-12 02:31:00,27.5,12.2,28.38,WNW,292,3.1,4.0,52,0.00,,---,0.00,VWS V14.00,2013-01-12 08:31:00,
2013-01-12 02:37:00,27.5,12.2,28.38,NW,317,3.6,5.8,52,0.00,,---,0.00,VWS V14.00,2013-01-12 08:37:00,
2013-01-12 02:42:00,27.3,12.0,28.38,West,268,3.6,5.8,52,0.00,,---,0.00,VWS V14.00,2013-01-12 08:42:00,
2013-01-12 02:47:00,27.3,12.0,28.38,NW,313,2.2,2.2,52,0.00,,---,0.00,VWS V14.00,2013-01-12 08:47:00,
2013-01-12 02:52:00,27.1,11.9,28.38,West,279,0.0,2.2,52,0.00,,---,0.00,VWS V14.00,2013-01-12 08:52:00,
2013-01-12 02:57:00,27.1,11.9,28.38,NW,312,3.1,4.9,52,0.00,,---,0.00,VWS V14.00,2013-01-12 08:57:00,
2013-01-12 03:02:00,27.0,11.3,28.38,NW,307,3.1,3.1,51,0.00,,---,0.00,VWS V14.00,2013-01-12 09:02:00,
2013-01-12 03:07:00,27.0,11.3,28.41,NW,308,3.6,3.6,51,0.00,,---,0.00,VWS V14.00,2013-01-12 09:07:00,
2013-01-12 03:13:00,27.0,11.3,28.41,WNW,291,4.0,5.4,51,0.00,,---,0.00,VWS V14.00,2013-01-12 09:13:00,
2013-01-12 03:18:00,26.8,11.1,28.41,NW,307,5.8,5.8,51,0.00,,---,0.00,VWS V14.00,2013-01-12 09:18:00,
2013-01-12 03:23:00,26.8,11.1,28.41,NW,312,2.7,4.0,51,0.00,,---,0.00,VWS V14.00,2013-01-12 09:23:00,
2013-01-12 03:28:00,26.8,11.1,28.41,NW,314,2.7,3.1,51,0.00,,---,0.00,VWS V14.00,2013-01-12 09:28:00,
2013-01-12 03:33:00,26.6,11.4,28.41,NW,314,5.8,5.8,52,0.00,,---,0.00,VWS V14.00,2013-01-12 09:33:00,
2013-01-12 03:38:00,26.6,11.4,28.41,NW,311,3.6,4.0,52,0.00,,---,0.00,VWS V14.00,2013-01-12 09:38:00,
2013-01-12 03:43:00,26.4,11.2,28.41,NW,308,4.0,4.0,52,0.00,,---,0.00,VWS V14.00,2013-01-12 09:43:00,
2013-01-12 03:48:00,26.4,11.2,28.41,NW,306,4.0,4.0,52,0.00,,---,0.00,VWS V14.00,2013-01-12 09:48:00,
2013-01-12 03:54:00,26.2,11.0,28.41,NW,322,3.1,4.0,52,0.00,,---,0.00,VWS V14.00,2013-01-12 09:54:00,
2013-01-12 03:59:00,26.2,11.4,28.41,NW,309,2.7,4.0,53,0.00,,---,0.00,VWS V14.00,2013-01-12 09:59:00,
2013-01-12 04:04:00,26.1,11.3,28.41,NW,307,2.7,3.1,53,0.00,,---,0.00,VWS V14.00,2013-01-12 10:04:00,
2013-01-12 04:09:00,26.1,11.3,28.41,NNW,329,4.0,4.0,53,0.00,,---,0.00,VWS V14.00,2013-01-12 10:09:00,
2013-01-12 04:14:00,26.1,11.3,28.41,WNW,299,3.1,4.9,53,0.00,,---,0.00,VWS V14.00,2013-01-12 10:14:00,
2013-01-12 04:19:00,26.1,11.3,28.41,NW,324,4.9,5.4,53,0.00,,---,0.00,VWS V14.00,2013-01-12 10:19:00,
2013-01-12 04:24:00,26.1,11.3,28.41,NW,314,0.0,3.6,53,0.00,,---,0.00,VWS V14.00,2013-01-12 10:24:00,
2013-01-12 04:29:00,25.9,11.1,28.41,NW,304,3.1,4.0,53,0.00,,---,0.00,VWS V14.00,2013-01-12 10:29:00,
2013-01-12 04:35:00,25.7,10.9,28.41,WNW,301,3.6,4.0,53,0.00,,---,0.00,VWS V14.00,2013-01-12 10:35:00,
2013-01-12 04:40:00,25.5,10.8,28.41,NW,324,3.1,4.0,53,0.00,,---,0.00,VWS V14.00,2013-01-12 10:40:00,
2013-01-12 04:45:00,25.5,11.2,28.41,NW,312,3.1,3.1,54,0.00,,---,0.00,VWS V14.00,2013-01-12 10:45:00,
2013-01-12 04:50:00,25.3,11.4,28.41,NW,315,3.6,3.6,55,0.00,,---,0.00,VWS V14.00,2013-01-12 10:50:00,
2013-01-12 04:55:00,25.3,11.4,28.41,NW,309,3.1,3.6,55,0.00,,---,0.00,VWS V14.00,2013-01-12 10:55:00,
2013-01-12 05:00:00,25.2,11.7,28.41,NW,317,4.9,4.9,56,0.00,,---,0.00,VWS V14.00,2013-01-12 11:00:00,
2013-01-12 05:05:00,25.2,11.7,28.41,WNW,303,4.0,4.0,56,0.00,,---,0.00,VWS V14.00,2013-01-12 11:05:00,
2013-01-12 05:11:00,25.2,11.7,28.41,NW,319,0.0,0.0,56,0.00,,---,0.00,VWS V14.00,2013-01-12 11:11:00,
2013-01-12 05:16:00,25.2,11.7,28.41,WNW,298,0.0,4.9,56,0.00,,---,0.00,VWS V14.00,2013-01-12 11:16:00,
2013-01-12 05:21:00,25.2,11.7,28.41,WNW,298,2.7,2.7,56,0.00,,---,0.00,VWS V14.00,2013-01-12 11:21:00,
2013-01-12 05:26:00,25.3,11.9,28.41,WNW,298,3.1,3.1,56,0.00,,---,0.00,VWS V14.00,2013-01-12 11:26:00,
2013-01-12 05:31:00,25.3,11.9,28.41,NW,306,3.1,3.1,56,0.00,,---,0.00,VWS V14.00,2013-01-12 11:31:00,
2013-01-12 05:36:00,25.3,11.9,28.41,NW,306,2.2,3.1,56,0.00,,---,0.00,VWS V14.00,2013-01-12 11:36:00,
2013-01-12 05:41:00,25.3,11.9,28.41,NW,312,0.0,3.1,56,0.00,,---,0.00,VWS V14.00,2013-01-12 11:41:00,
2013-01-12 05:47:00,25.3,12.2,28.41,NW,311,2.7,4.0,57,0.00,,---,0.00,VWS V14.00,2013-01-12 11:47:00,
2013-01-12 05:52:00,25.3,12.2,28.41,West,263,2.7,2.7,57,0.00,,---,0.00,VWS V14.00,2013-01-12 11:52:00,
2013-01-12 05:57:00,25.2,12.5,28.41,West,270,2.7,4.0,58,0.00,,---,0.00,VWS V14.00,2013-01-12 11:57:00,
2013-01-12 06:02:00,25.0,12.3,28.41,West,270,2.7,5.8,58,0.00,,---,0.00,VWS V14.00,2013-01-12 12:02:00,
2013-01-12 06:07:00,24.8,12.1,28.44,WNW,287,2.7,2.7,58,0.00,,---,0.00,VWS V14.00,2013-01-12 12:07:00,
2013-01-12 06:12:00,24.6,12.0,28.44,NW,312,2.7,3.6,58,0.00,,---,0.00,VWS V14.00,2013-01-12 12:12:00,
2013-01-12 06:17:00,24.4,12.2,28.44,NW,319,5.4,5.4,59,0.00,,---,0.00,VWS V14.00,2013-01-12 12:17:00,
2013-01-12 06:22:00,24.4,12.2,28.44,WNW,290,4.0,4.0,59,0.00,,---,0.00,VWS V14.00,2013-01-12 12:22:00,
2013-01-12 06:27:00,24.3,11.6,28.44,NNW,335,2.7,5.8,58,0.00,,---,0.00,VWS V14.00,2013-01-12 12:27:00,
2013-01-12 06:32:00,24.3,11.6,28.44,NW,317,3.1,5.8,58,0.00,,---,0.00,VWS V14.00,2013-01-12 12:32:00,
2013-01-12 06:37:00,24.3,11.6,28.44,NW,309,4.0,4.9,58,0.00,,---,0.00,VWS V14.00,2013-01-12 12:37:00,
2013-01-12 06:43:00,24.3,11.6,28.44,WNW,303,4.0,5.4,58,0.00,,---,0.00,VWS V14.00,2013-01-12 12:43:00,
2013-01-12 06:48:00,24.3,11.6,28.44,NW,308,3.1,4.0,58,0.00,,---,0.00,VWS V14.00,2013-01-12 12:48:00,
2013-01-12 06:53:00,24.3,11.6,28.44,NW,304,3.6,4.0,58,0.00,,---,0.00,VWS V14.00,2013-01-12 12:53:00,
2013-01-12 06:58:00,24.4,11.8,28.44,NNW,330,3.6,4.5,58,0.00,,---,0.00,VWS V14.00,2013-01-12 12:58:00,
2013-01-12 07:03:00,24.3,11.2,28.44,NW,309,3.6,4.9,57,0.00,,---,0.00,VWS V14.00,2013-01-12 13:03:00,
2013-01-12 07:08:00,24.3,11.2,28.44,WNW,296,4.9,4.9,57,0.00,,---,0.00,VWS V14.00,2013-01-12 13:08:00,
2013-01-12 07:13:00,24.3,10.8,28.44,NW,320,7.6,7.6,56,0.00,,---,0.00,VWS V14.00,2013-01-12 13:13:00,
2013-01-12 07:18:00,24.3,10.8,28.44,WNW,302,4.9,6.3,56,0.00,,---,0.00,VWS V14.00,2013-01-12 13:18:00,
2013-01-12 07:23:00,24.3,10.4,28.44,West,278,5.8,5.8,55,0.00,,---,0.00,VWS V14.00,2013-01-12 13:23:00,
2013-01-12 07:28:00,24.4,10.6,28.44,WNW,296,5.4,5.4,55,0.00,,---,0.00,VWS V14.00,2013-01-12 13:28:00,
2013-01-12 07:34:00,24.4,10.6,28.44,NW,306,2.7,5.8,55,0.00,,---,0.00,VWS V14.00,2013-01-12 13:34:00,
2013-01-12 07:39:00,24.4,10.6,28.47,NW,322,6.3,8.3,55,0.00,,---,0.00,VWS V14.00,2013-01-12 13:39:00,
2013-01-12 07:44:00,24.4,10.2,28.47,WNW,303,3.6,3.6,54,0.00,,---,0.00,VWS V14.00,2013-01-12 13:44:00,
2013-01-12 07:49:00,24.4,10.2,28.47,NW,324,5.8,5.8,54,0.00,,---,0.00,VWS V14.00,2013-01-12 13:49:00,
2013-01-12 07:54:00,24.4,10.2,28.47,NW,312,3.1,4.0,54,0.00,,---,0.00,VWS V14.00,2013-01-12 13:54:00,
2013-01-12 07:59:00,24.4,10.2,28.47,NW,306,4.0,4.0,54,0.00,,---,0.00,VWS V14.00,2013-01-12 13:59:00,
2013-01-12 08:04:00,24.4,10.2,28.47,West,280,3.1,3.6,54,0.00,,---,0.00,VWS V14.00,2013-01-12 14:04:00,
2013-01-12 08:09:00,24.4,10.2,28.47,NW,313,3.1,5.4,54,0.00,,---,0.00,VWS V14.00,2013-01-12 14:09:00,
2013-01-12 08:14:00,24.4,9.8,28.47,WNW,296,4.9,5.8,53,0.00,,---,0.00,VWS V14.00,2013-01-12 14:14:00,
2013-01-12 08:19:00,24.4,9.8,28.47,WNW,297,8.7,8.7,53,0.00,,---,0.00,VWS V14.00,2013-01-12 14:19:00,
2013-01-12 08:24:00,24.4,9.8,28.47,NW,305,5.8,8.3,53,0.00,,---,0.00,VWS V14.00,2013-01-12 14:24:00,
2013-01-12 08:30:00,24.4,9.8,28.47,West,275,4.0,8.1,53,0.00,,---,0.00,VWS V14.00,2013-01-12 14:30:00,
2013-01-12 08:35:00,24.6,9.9,28.47,NW,304,4.0,10.1,53,0.00,,---,0.00,VWS V14.00,2013-01-12 14:35:00,
2013-01-12 08:40:00,24.6,9.5,28.47,NW,312,3.1,3.1,52,0.00,,---,0.00,VWS V14.00,2013-01-12 14:40:00,
2013-01-12 08:45:00,24.6,9.5,28.47,NW,324,5.4,5.8,52,0.00,,---,0.00,VWS V14.00,2013-01-12 14:45:00,
2013-01-12 08:50:00,24.8,10.1,28.47,WNW,297,5.4,5.4,53,0.00,,---,0.00,VWS V14.00,2013-01-12 14:50:00,
2013-01-12 08:55:00,24.8,9.7,28.50,NW,307,11.9,11.9,52,0.00,,---,0.00,VWS V14.00,2013-01-12 14:55:00,
2013-01-12 09:00:00,24.6,9.5,28.50,NNW,329,8.7,8.7,52,0.00,,---,0.00,VWS V14.00,2013-01-12 15:00:00,
2013-01-12 09:05:00,24.6,9.5,28.50,WNW,301,5.4,8.1,52,0.00,,---,0.00,VWS V14.00,2013-01-12 15:05:00,
2013-01-12 09:10:00,24.8,9.7,28.50,WNW,295,5.8,6.3,52,0.00,,---,0.00,VWS V14.00,2013-01-12 15:10:00,
2013-01-12 09:15:00,24.8,9.7,28.50,NW,315,7.6,8.1,52,0.00,,---,0.00,VWS V14.00,2013-01-12 15:15:00,
2013-01-12 09:20:00,24.8,9.7,28.50,NW,312,5.4,5.4,52,0.00,,---,0.00,VWS V14.00,2013-01-12 15:20:00,
2013-01-12 09:26:00,25.0,9.4,28.50,NNW,332,6.3,6.3,51,0.00,,---,0.00,VWS V14.00,2013-01-12 15:26:00,
2013-01-12 09:31:00,25.2,9.1,28.50,NW,306,4.9,4.9,50,0.00,,---,0.00,VWS V14.00,2013-01-12 15:31:00,
2013-01-12 09:36:00,25.2,8.7,28.50,NW,310,5.4,8.7,49,0.00,,---,0.00,VWS V14.00,2013-01-12 15:36:00,
2013-01-12 09:41:00,25.3,8.9,28.50,NNW,327,7.2,8.1,49,0.00,,---,0.00,VWS V14.00,2013-01-12 15:41:00,
2013-01-12 09:46:00,25.3,8.9,28.50,WNW,292,2.2,5.4,49,0.00,,---,0.00,VWS V14.00,2013-01-12 15:46:00,
2013-01-12 09:51:00,25.3,8.9,28.50,WNW,296,3.6,6.3,49,0.00,,---,0.00,VWS V14.00,2013-01-12 15:51:00,
2013-01-12 09:56:00,25.5,9.5,28.50,NW,311,5.8,5.8,50,0.00,,---,0.00,VWS V14.00,2013-01-12 15:56:00,
2013-01-12 10:01:00,25.9,9.8,28.50,NW,321,4.0,4.0,50,0.00,,---,0.00,VWS V14.00,2013-01-12 16:01:00,
2013-01-12 10:06:00,26.2,9.7,28.50,NNW,334,6.3,7.2,49,0.00,,---,0.00,VWS V14.00,2013-01-12 16:06:00,
2013-01-12 10:11:00,26.6,9.1,28.50,WNW,299,2.7,8.3,47,0.00,,---,0.00,VWS V14.00,2013-01-12 16:11:00,
2013-01-12 10:16:00,26.4,8.5,28.50,NNW,345,5.4,5.4,46,0.00,,---,0.00,VWS V14.00,2013-01-12 16:16:00,
2013-01-12 10:21:00,26.2,8.3,28.53,NW,325,4.0,6.3,46,0.00,,---,0.00,VWS V14.00,2013-01-12 16:21:00,
2013-01-12 10:26:00,26.2,8.3,28.53,NW,312,5.4,6.3,46,0.00,,---,0.00,VWS V14.00,2013-01-12 16:26:00,
2013-01-12 10:31:00,25.9,7.5,28.53,NW,318,3.1,5.4,45,0.00,,---,0.00,VWS V14.00,2013-01-12 16:31:00,
2013-01-12 10:37:00,25.9,8.0,28.50,NW,319,4.9,8.1,46,0.00,,---,0.00,VWS V14.00,2013-01-12 16:37:00,
2013-01-12 10:42:00,25.7,7.8,28.50,NW,322,5.4,6.3,46,0.00,,---,0.00,VWS V14.00,2013-01-12 16:42:00,
2013-01-12 10:47:00,25.5,7.6,28.50,NW,317,3.1,3.1,46,0.00,,---,0.00,VWS V14.00,2013-01-12 16:47:00,
2013-01-12 10:52:00,25.3,7.9,28.50,NW,321,5.8,7.6,47,0.00,,---,0.00,VWS V14.00,2013-01-12 16:52:00,
2013-01-12 10:57:00,25.2,7.8,28.50,NW,305,4.9,4.9,47,0.00,,---,0.00,VWS V14.00,2013-01-12 16:57:00,
2013-01-12 11:02:00,25.3,7.5,28.50,NW,317,5.8,7.6,46,0.00,,---,0.00,VWS V14.00,2013-01-12 17:02:00,
2013-01-12 11:07:00,25.5,7.6,28.50,West,260,8.3,10.1,46,0.00,,---,0.00,VWS V14.00,2013-01-12 17:07:00,
2013-01-12 11:12:00,25.5,7.2,28.50,NW,317,5.4,5.4,45,0.00,,---,0.00,VWS V14.00,2013-01-12 17:12:00,
2013-01-12 11:17:00,25.7,6.8,28.50,NW,318,10.1,10.1,44,0.00,,---,0.00,VWS V14.00,2013-01-12 17:17:00,
2013-01-12 11:22:00,25.7,6.8,28.50,NW,317,5.4,6.3,44,0.00,,---,0.00,VWS V14.00,2013-01-12 17:22:00,
2013-01-12 11:27:00,25.3,6.0,28.50,NNW,333,5.8,8.1,43,0.00,,---,0.00,VWS V14.00,2013-01-12 17:27:00,
2013-01-12 11:33:00,25.3,6.5,28.50,NW,309,5.4,7.6,44,0.00,,---,0.00,VWS V14.00,2013-01-12 17:33:00,
2013-01-12 11:38:00,25.3,6.5,28.47,NW,320,6.7,6.7,44,0.00,,---,0.00,VWS V14.00,2013-01-12 17:38:00,
2013-01-12 11:43:00,25.7,6.8,28.47,NW,315,6.3,10.1,44,0.00,,---,0.00,VWS V14.00,2013-01-12 17:43:00,
2013-01-12 11:48:00,26.1,7.2,28.47,West,273,7.6,7.6,44,0.00,,---,0.00,VWS V14.00,2013-01-12 17:48:00,
2013-01-12 11:53:00,26.2,7.3,28.47,NW,309,5.4,8.1,44,0.00,,---,0.00,VWS V14.00,2013-01-12 17:53:00,
2013-01-12 11:58:00,26.2,7.3,28.47,WNW,294,8.3,8.3,44,0.00,,---,0.00,VWS V14.00,2013-01-12 17:58:00,
2013-01-12 12:03:00,26.1,6.6,28.47,NW,323,5.4,5.4,43,0.00,,---,0.00,VWS V14.00,2013-01-12 18:03:00,
2013-01-12 12:08:00,25.9,7.0,28.44,NW,317,4.0,10.5,44,0.00,,---,0.00,VWS V14.00,2013-01-12 18:08:00,
2013-01-12 12:13:00,25.5,6.7,28.44,WNW,290,7.2,8.7,44,0.00,,---,0.00,VWS V14.00,2013-01-12 18:13:00,
2013-01-12 12:19:00,25.5,6.7,28.44,NW,323,4.9,10.1,44,0.00,,---,0.00,VWS V14.00,2013-01-12 18:19:00,
2013-01-12 12:24:00,25.7,6.8,28.44,NW,317,5.8,5.8,44,0.00,,---,0.00,VWS V14.00,2013-01-12 18:24:00,
2013-01-12 12:29:00,25.7,6.8,28.44,WNW,302,7.6,8.7,44,0.00,,---,0.00,VWS V14.00,2013-01-12 18:29:00,
2013-01-12 12:34:00,25.7,6.3,28.44,NW,316,8.1,8.1,43,0.00,,---,0.00,VWS V14.00,2013-01-12 18:34:00,
2013-01-12 12:39:00,25.7,6.3,28.44,WNW,289,6.3,7.6,43,0.00,,---,0.00,VWS V14.00,2013-01-12 18:39:00,
2013-01-12 12:44:00,25.7,6.3,28.44,NNW,340,8.7,8.7,43,0.00,,---,0.00,VWS V14.00,2013-01-12 18:44:00,
2013-01-12 12:49:00,25.7,6.3,28.44,NW,313,6.7,7.2,43,0.00,,---,0.00,VWS V14.00,2013-01-12 18:49:00,
2013-01-12 12:54:00,25.5,6.2,28.44,NW,321,5.8,6.3,43,0.00,,---,0.00,VWS V14.00,2013-01-12 18:54:00,
2013-01-12 12:59:00,25.5,5.6,28.44,NW,312,6.3,6.3,42,0.00,,---,0.00,VWS V14.00,2013-01-12 18:59:00,
2013-01-12 13:04:00,25.3,6.0,28.44,NNW,328,5.4,6.3,43,0.00,,---,0.00,VWS V14.00,2013-01-12 19:04:00,
2013-01-12 13:10:00,25.3,5.5,28.44,NNW,328,5.4,6.3,42,0.00,,---,0.00,VWS V14.00,2013-01-12 19:10:00,
2013-01-12 13:15:00,25.3,5.5,28.44,WNW,301,6.3,6.7,42,0.00,,---,0.00,VWS V14.00,2013-01-12 19:15:00,
2013-01-12 13:20:00,25.5,6.2,28.44,NNW,331,8.1,8.7,43,0.00,,---,0.00,VWS V14.00,2013-01-12 19:20:00,
2013-01-12 13:25:00,25.5,5.6,28.44,WNW,299,5.4,8.7,42,0.00,,---,0.00,VWS V14.00,2013-01-12 19:25:00,
2013-01-12 13:30:00,25.5,6.2,28.44,NW,318,3.6,6.3,43,0.00,,---,0.00,VWS V14.00,2013-01-12 19:30:00,
2013-01-12 13:35:00,25.7,6.3,28.44,NNW,332,5.8,8.1,43,0.00,,---,0.00,VWS V14.00,2013-01-12 19:35:00,
2013-01-12 13:40:00,25.9,6.5,28.44,WNW,301,3.6,5.4,43,0.00,,---,0.00,VWS V14.00,2013-01-12 19:40:00,
2013-01-12 13:45:00,26.1,6.6,28.44,NW,311,7.6,7.6,43,0.00,,---,0.00,VWS V14.00,2013-01-12 19:45:00,
2013-01-12 13:50:00,26.4,7.0,28.44,NW,315,8.3,8.3,43,0.00,,---,0.00,VWS V14.00,2013-01-12 19:50:00,
2013-01-12 13:55:00,27.0,6.9,28.44,NW,311,5.8,10.5,42,0.00,,---,0.00,VWS V14.00,2013-01-12 19:55:00,
2013-01-12 14:00:00,26.6,6.6,28.44,WNW,282,3.1,7.2,42,0.00,,---,0.00,VWS V14.00,2013-01-12 20:00:00,
2013-01-12 14:05:00,26.1,6.1,28.44,NW,320,2.7,6.3,42,0.00,,---,0.00,VWS V14.00,2013-01-12 20:05:00,
2013-01-12 14:10:00,26.1,6.1,28.44,North,349,5.8,7.6,42,0.00,,---,0.00,VWS V14.00,2013-01-12 20:10:00,
2013-01-12 14:15:00,26.1,6.6,28.44,NW,311,8.1,8.1,43,0.00,,---,0.00,VWS V14.00,2013-01-12 20:15:00,
2013-01-12 14:20:00,26.1,6.1,28.44,WNW,303,8.7,8.7,42,0.00,,---,0.00,VWS V14.00,2013-01-12 20:20:00,
2013-01-12 14:26:00,25.9,6.5,28.44,NW,320,3.6,3.6,43,0.00,,---,0.00,VWS V14.00,2013-01-12 20:26:00,
2013-01-12 14:31:00,26.1,6.6,28.44,NNW,344,8.3,8.3,43,0.00,,---,0.00,VWS V14.00,2013-01-12 20:31:00,
2013-01-12 14:36:00,26.4,7.0,28.41,WNW,297,6.3,6.3,43,0.00,,---,0.00,VWS V14.00,2013-01-12 20:36:00,
2013-01-12 14:41:00,26.8,6.8,28.41,NW,310,6.3,6.3,42,0.00,,---,0.00,VWS V14.00,2013-01-12 20:41:00,
2013-01-12 14:46:00,26.8,6.8,28.41,WNW,294,7.2,8.3,42,0.00,,---,0.00,VWS V14.00,2013-01-12 20:46:00,
2013-01-12 14:51:00,26.4,6.4,28.41,NW,315,5.4,5.4,42,0.00,,---,0.00,VWS V14.00,2013-01-12 20:51:00,
2013-01-12 14:56:00,26.1,6.1,28.41,WNW,292,4.9,10.5,42,0.00,,---,0.00,VWS V14.00,2013-01-12 20:56:00,
2013-01-12 15:01:00,25.9,6.5,28.41,NW,321,5.4,7.6,43,0.00,,---,0.00,VWS V14.00,2013-01-12 21:01:00,
2013-01-12 15:07:00,25.7,5.8,28.44,NW,324,8.7,8.7,42,0.00,,---,0.00,VWS V14.00,2013-01-12 21:07:00,
2013-01-12 15:12:00,25.7,6.3,28.44,NW,323,7.2,7.2,43,0.00,,---,0.00,VWS V14.00,2013-01-12 21:12:00,
2013-01-12 15:17:00,25.9,6.5,28.44,NW,321,4.0,6.3,43,0.00,,---,0.00,VWS V14.00,2013-01-12 21:17:00,
2013-01-12 15:22:00,25.9,6.5,28.44,NNW,328,4.0,4.0,43,0.00,,---,0.00,VWS V14.00,2013-01-12 21:22:00,
2013-01-12 15:27:00,26.1,6.6,28.44,NW,314,5.8,5.8,43,0.00,,---,0.00,VWS V14.00,2013-01-12 21:27:00,
2013-01-12 15:32:00,26.1,6.6,28.44,NW,320,4.0,5.4,43,0.00,,---,0.00,VWS V14.00,2013-01-12 21:32:00,
2013-01-12 15:37:00,26.1,6.6,28.47,NNW,332,3.1,5.4,43,0.00,,---,0.00,VWS V14.00,2013-01-12 21:37:00,
2013-01-12 15:43:00,25.9,6.5,28.47,NW,317,6.3,6.3,43,0.00,,---,0.00,VWS V14.00,2013-01-12 21:43:00,
2013-01-12 15:48:00,25.9,6.5,28.47,NW,304,3.6,4.9,43,0.00,,---,0.00,VWS V14.00,2013-01-12 21:48:00,
2013-01-12 15:53:00,25.9,6.5,28.47,NW,326,4.9,7.6,43,0.00,,---,0.00,VWS V14.00,2013-01-12 21:53:00,
2013-01-12 15:58:00,25.9,6.5,28.47,NNW,328,3.1,4.0,43,0.00,,---,0.00,VWS V14.00,2013-01-12 21:58:00,
2013-01-12 16:03:00,25.9,6.5,28.47,NW,313,4.9,5.8,43,0.00,,---,0.00,VWS V14.00,2013-01-12 22:03:00,
2013-01-12 16:08:00,25.9,6.5,28.47,North,353,5.4,5.4,43,0.00,,---,0.00,VWS V14.00,2013-01-12 22:08:00,
2013-01-12 16:13:00,26.1,6.6,28.47,WNW,303,5.4,5.4,43,0.00,,---,0.00,VWS V14.00,2013-01-12 22:13:00,
2013-01-12 16:18:00,26.2,6.8,28.47,WNW,303,5.4,5.8,43,0.00,,---,0.00,VWS V14.00,2013-01-12 22:18:00,
2013-01-12 16:24:00,26.2,6.8,28.47,NNW,338,8.3,8.7,43,0.00,,---,0.00,VWS V14.00,2013-01-12 22:24:00,
2013-01-12 16:29:00,26.1,6.6,28.47,NNW,341,2.7,4.9,43,0.00,,---,0.00,VWS V14.00,2013-01-12 22:29:00,
2013-01-12 16:34:00,26.1,6.6,28.47,NNW,340,5.8,5.8,43,0.00,,---,0.00,VWS V14.00,2013-01-12 22:34:00,
2013-01-12 16:39:00,26.1,6.6,28.47,NNE,12,5.4,5.4,43,0.00,,---,0.00,VWS V14.00,2013-01-12 22:39:00,
2013-01-12 16:44:00,25.9,6.5,28.47,NNW,346,5.4,5.4,43,0.00,,---,0.00,VWS V14.00,2013-01-12 22:44:00,
2013-01-12 16:49:00,25.9,6.5,28.47,NW,322,4.0,4.0,43,0.00,,---,0.00,VWS V14.00,2013-01-12 22:49:00,
2013-01-12 16:54:00,25.7,6.3,28.47,NNW,338,4.0,4.0,43,0.00,,---,0.00,VWS V14.00,2013-01-12 22:54:00,
2013-01-12 16:59:00,25.7,6.8,28.47,NNW,328,3.1,4.0,44,0.00,,---,0.00,VWS V14.00,2013-01-12 22:59:00,
2013-01-12 17:04:00,25.7,6.3,28.47,NW,313,2.7,4.0,43,0.00,,---,0.00,VWS V14.00,2013-01-12 23:04:00,
2013-01-12 17:10:00,25.5,6.2,28.50,North,353,5.8,8.1,43,0.00,,---,0.00,VWS V14.00,2013-01-12 23:10:00,
2013-01-12 17:15:00,25.3,6.0,28.50,NNW,335,3.6,6.3,43,0.00,,---,0.00,VWS V14.00,2013-01-12 23:15:00,
2013-01-12 17:20:00,25.2,6.3,28.50,NW,318,4.0,6.3,44,0.00,,---,0.00,VWS V14.00,2013-01-12 23:20:00,
2013-01-12 17:25:00,25.2,6.3,28.47,NNW,331,3.1,5.8,44,0.00,,---,0.00,VWS V14.00,2013-01-12 23:25:00,
2013-01-12 17:30:00,25.0,6.2,28.47,NNW,330,4.0,5.4,44,0.00,,---,0.00,VWS V14.00,2013-01-12 23:30:00,
2013-01-12 17:35:00,24.8,6.0,28.47,NNW,331,3.6,4.0,44,0.00,,---,0.00,VWS V14.00,2013-01-12 23:35:00,
2013-01-12 17:40:00,24.6,5.8,28.47,NNW,330,4.0,4.9,44,0.00,,---,0.00,VWS V14.00,2013-01-12 23:40:00,
2013-01-12 17:45:00,24.4,5.7,28.47,North,353,3.1,4.5,44,0.00,,---,0.00,VWS V14.00,2013-01-12 23:45:00,
2013-01-12 17:50:00,24.4,5.7,28.47,NW,318,5.8,5.8,44,0.00,,---,0.00,VWS V14.00,2013-01-12 23:50:00,
2013-01-12 17:55:00,24.3,5.5,28.47,NNW,329,6.3,6.3,44,0.00,,---,0.00,VWS V14.00,2013-01-12 23:55:00,
2013-01-12 18:01:00,23.9,5.7,28.47,NNW,330,3.6,5.4,45,0.00,,---,0.00,VWS V14.00,2013-01-13 00:01:00,
2013-01-12 18:06:00,23.9,5.7,28.50,WNW,303,2.7,4.0,45,0.00,,---,0.00,VWS V14.00,2013-01-13 00:06:00,
2013-01-12 18:11:00,23.7,6.0,28.50,NNW,337,5.4,6.7,46,0.00,,---,0.00,VWS V14.00,2013-01-13 00:11:00,
2013-01-12 18:16:00,23.5,5.8,28.50,NW,305,8.7,8.7,46,0.00,,---,0.00,VWS V14.00,2013-01-13 00:16:00,
2013-01-12 18:21:00,23.5,5.8,28.50,NW,324,5.4,5.4,46,0.00,,---,0.00,VWS V14.00,2013-01-13 00:21:00,
2013-01-12 18:26:00,23.5,5.3,28.50,NW,310,4.9,6.3,45,0.00,,---,0.00,VWS V14.00,2013-01-13 00:26:00,
2013-01-12 18:31:00,23.4,5.2,28.50,NW,311,7.6,8.1,45,0.00,,---,0.00,VWS V14.00,2013-01-13 00:31:00,
2013-01-12 18:36:00,23.4,5.7,28.47,WNW,293,7.2,7.2,46,0.00,,---,0.00,VWS V14.00,2013-01-13 00:36:00,
2013-01-12 18:41:00,23.2,5.0,28.47,NW,322,5.4,5.4,45,0.00,,---,0.00,VWS V14.00,2013-01-13 00:41:00,
2013-01-12 18:46:00,23.0,5.3,28.47,NNW,334,5.8,6.3,46,0.00,,---,0.00,VWS V14.00,2013-01-13 00:46:00,
2013-01-12 18:51:00,22.8,5.2,28.53,NW,320,4.5,4.9,46,0.00,,---,0.00,VWS V14.00,2013-01-13 00:51:00,
2013-01-12 18:57:00,22.8,5.2,28.53,NW,325,5.8,6.3,46,0.00,,---,0.00,VWS V14.00,2013-01-13 00:57:00,
2013-01-12 19:02:00,22.6,5.0,28.53,WNW,299,4.0,7.2,46,0.00,,---,0.00,VWS V14.00,2013-01-13 01:02:00,
2013-01-12 19:07:00,22.5,4.8,28.50,NW,317,3.6,4.9,46,0.00,,---,0.00,VWS V14.00,2013-01-13 01:07:00,
2013-01-12 19:12:00,22.3,4.7,28.50,WNW,303,7.6,8.3,46,0.00,,---,0.00,VWS V14.00,2013-01-13 01:12:00,
2013-01-12 19:17:00,22.3,4.7,28.50,NW,323,7.6,7.6,46,0.00,,---,0.00,VWS V14.00,2013-01-13 01:17:00,
2013-01-12 19:22:00,22.3,5.1,28.50,NW,315,3.1,3.6,47,0.00,,---,0.00,VWS V14.00,2013-01-13 01:22:00,
2013-01-12 19:27:00,22.3,5.1,28.50,NNW,338,4.9,4.9,47,0.00,,---,0.00,VWS V14.00,2013-01-13 01:27:00,
2013-01-12 19:32:00,22.3,5.1,28.50,NNW,339,4.0,6.3,47,0.00,,---,0.00,VWS V14.00,2013-01-13 01:32:00,
2013-01-12 19:37:00,22.1,5.0,28.50,NNW,343,5.4,6.3,47,0.00,,---,0.00,VWS V14.00,2013-01-13 01:37:00,
2013-01-12 19:42:00,22.1,5.0,28.50,NNW,334,5.4,5.8,47,0.00,,---,0.00,VWS V14.00,2013-01-13 01:42:00,
2013-01-12 19:48:00,21.9,4.8,28.50,North,357,6.3,6.3,47,0.00,,---,0.00,VWS V14.00,2013-01-13 01:48:00,
2013-01-12 19:53:00,21.9,4.8,28.50,NNW,332,4.5,8.3,47,0.00,,---,0.00,VWS V14.00,2013-01-13 01:53:00,
2013-01-12 19:58:00,21.7,4.2,28.50,NW,319,5.8,7.6,46,0.00,,---,0.00,VWS V14.00,2013-01-13 01:58:00,
2013-01-12 20:03:00,21.6,4.0,28.50,NNW,328,5.4,5.4,46,0.00,,---,0.00,VWS V14.00,2013-01-13 02:03:00,
2013-01-12 20:08:00,21.4,4.3,28.50,NW,316,4.0,5.4,47,0.00,,---,0.00,VWS V14.00,2013-01-13 02:08:00,
2013-01-12 20:13:00,21.2,4.1,28.50,NW,317,6.3,6.3,47,0.00,,---,0.00,VWS V14.00,2013-01-13 02:13:00,
2013-01-12 20:18:00,21.2,4.1,28.50,NW,314,8.1,8.1,47,0.00,,---,0.00,VWS V14.00,2013-01-13 02:18:00,
2013-01-12 20:23:00,21.2,4.1,28.50,NNW,338,5.8,8.1,47,0.00,,---,0.00,VWS V14.00,2013-01-13 02:23:00,
2013-01-12 20:29:00,21.0,4.4,28.50,NNW,344,4.0,4.0,48,0.00,,---,0.00,VWS V14.00,2013-01-13 02:29:00,
2013-01-12 20:34:00,20.8,4.2,28.50,West,276,6.3,6.3,48,0.00,,---,0.00,VWS V14.00,2013-01-13 02:34:00,
2013-01-12 20:39:00,20.7,4.1,28.50,NW,325,7.6,7.6,48,0.00,,---,0.00,VWS V14.00,2013-01-13 02:39:00,
2013-01-12 20:44:00,20.5,4.4,28.50,NNW,339,5.8,5.8,49,0.00,,---,0.00,VWS V14.00,2013-01-13 02:44:00,
2013-01-12 20:49:00,20.5,4.4,28.50,NW,319,5.4,5.8,49,0.00,,---,0.00,VWS V14.00,2013-01-13 02:49:00,
2013-01-12 20:54:00,20.3,4.2,28.53,NNW,334,4.9,6.3,49,0.00,,---,0.00,VWS V14.00,2013-01-13 02:54:00,
2013-01-12 20:59:00,20.3,4.2,28.53,NW,316,2.7,4.0,49,0.00,,---,0.00,VWS V14.00,2013-01-13 02:59:00,
2013-01-12 21:05:00,20.3,4.2,28.53,NW,314,3.1,4.0,49,0.00,,---,0.00,VWS V14.00,2013-01-13 03:05:00,
2013-01-12 21:10:00,20.1,4.0,28.53,NNW,327,3.1,3.1,49,0.00,,---,0.00,VWS V14.00,2013-01-13 03:10:00,
2013-01-12 21:15:00,19.9,3.9,28.53,NW,320,3.1,3.1,49,0.00,,---,0.00,VWS V14.00,2013-01-13 03:15:00,
2013-01-12 21:20:00,19.9,3.9,28.53,NW,321,2.7,3.6,49,0.00,,---,0.00,VWS V14.00,2013-01-13 03:20:00,
2013-01-12 21:25:00,19.8,3.7,28.53,NW,315,4.0,4.0,49,0.00,,---,0.00,VWS V14.00,2013-01-13 03:25:00,
2013-01-12 21:30:00,19.8,4.1,28.53,NNW,328,2.7,5.4,50,0.00,,---,0.00,VWS V14.00,2013-01-13 03:30:00,
2013-01-12 21:35:00,19.6,4.4,28.53,NW,320,3.6,4.0,51,0.00,,---,0.00,VWS V14.00,2013-01-13 03:35:00,
2013-01-12 21:40:00,19.6,4.4,28.53,NW,321,2.7,4.9,51,0.00,,---,0.00,VWS V14.00,2013-01-13 03:40:00,
2013-01-12 21:46:00,19.4,4.7,28.53,NNW,335,4.0,4.9,52,0.00,,---,0.00,VWS V14.00,2013-01-13 03:46:00,
2013-01-12 21:51:00,19.2,4.5,28.53,NW,310,2.7,3.1,52,0.00,,---,0.00,VWS V14.00,2013-01-13 03:51:00,
2013-01-12 21:56:00,19.2,4.9,28.53,NNW,338,3.6,4.0,53,0.00,,---,0.00,VWS V14.00,2013-01-13 03:56:00,
2013-01-12 22:01:00,19.0,4.7,28.53,NW,308,4.0,4.0,53,0.00,,---,0.00,VWS V14.00,2013-01-13 04:01:00,
2013-01-12 22:06:00,18.9,5.0,28.53,NW,308,2.2,3.6,54,0.00,,---,0.00,VWS V14.00,2013-01-13 04:06:00,
2013-01-12 22:11:00,18.5,4.6,28.53,NW,309,3.1,3.6,54,0.00,,---,0.00,VWS V14.00,2013-01-13 04:11:00,
2013-01-12 22:16:00,18.3,4.9,28.53,NW,308,3.6,3.6,55,0.00,,---,0.00,VWS V14.00,2013-01-13 04:16:00,
2013-01-12 22:22:00,18.3,5.3,28.53,NW,308,2.2,3.6,56,0.00,,---,0.00,VWS V14.00,2013-01-13 04:22:00,
2013-01-12 22:27:00,18.1,5.1,28.53,NW,308,4.0,4.0,56,0.00,,---,0.00,VWS V14.00,2013-01-13 04:27:00,
2013-01-12 22:32:00,18.3,5.7,28.53,NW,315,5.8,5.8,57,0.00,,---,0.00,VWS V14.00,2013-01-13 04:32:00,
2013-01-12 22:37:00,18.3,5.7,28.53,NW,310,6.3,6.3,57,0.00,,---,0.00,VWS V14.00,2013-01-13 04:37:00,
2013-01-12 22:42:00,18.3,5.7,28.53,NW,319,3.6,5.8,57,0.00,,---,0.00,VWS V14.00,2013-01-13 04:42:00,
2013-01-12 22:47:00,18.3,5.7,28.53,NW,312,3.6,3.6,57,0.00,,---,0.00,VWS V14.00,2013-01-13 04:47:00,
2013-01-12 22:52:00,18.3,5.3,28.53,NW,304,3.1,3.6,56,0.00,,---,0.00,VWS V14.00,2013-01-13 04:52:00,
2013-01-12 22:58:00,18.3,5.3,28.53,NW,304,5.4,5.4,56,0.00,,---,0.00,VWS V14.00,2013-01-13 04:58:00,
2013-01-12 23:00:00,18.1,5.1,28.53,NW,324,5.8,5.8,56,0.00,,---,0.00,VWS V14.00,2013-01-13 05:00:00,
2013-01-12 23:01:00,18.1,5.1,28.53,NW,316,3.1,3.6,56,0.00,,---,0.00,VWS V14.00,2013-01-13 05:01:00,
2013-01-12 23:03:00,18.1,5.1,28.53,NW,320,3.6,4.0,56,0.00,,---,0.00,VWS V14.00,2013-01-13 05:03:00,
2013-01-12 23:08:00,18.1,5.1,28.53,NW,308,3.6,4.0,56,0.00,,---,0.00,VWS V14.00,2013-01-13 05:08:00,
2013-01-12 23:13:00,18.1,5.1,28.53,NW,305,7.2,7.2,56,0.00,,---,0.00,VWS V14.00,2013-01-13 05:13:00,
2013-01-12 23:18:00,18.1,4.7,28.53,NW,309,4.0,7.6,55,0.00,,---,0.00,VWS V14.00,2013-01-13 05:18:00,
2013-01-12 23:23:00,18.1,5.1,28.53,NW,323,2.7,3.6,56,0.00,,---,0.00,VWS V14.00,2013-01-13 05:23:00,
2013-01-12 23:28:00,18.1,5.1,28.53,NNW,333,5.4,5.8,56,0.00,,---,0.00,VWS V14.00,2013-01-13 05:28:00,
2013-01-12 23:34:00,18.0,4.5,28.53,NW,319,3.6,4.9,55,0.00,,---,0.00,VWS V14.00,2013-01-13 05:34:00,
2013-01-12 23:39:00,18.0,4.1,28.53,WNW,297,6.3,6.3,54,0.00,,---,0.00,VWS V14.00,2013-01-13 05:39:00,
2013-01-12 23:44:00,17.8,4.0,28.53,NNW,344,5.4,5.4,54,0.00,,---,0.00,VWS V14.00,2013-01-13 05:44:00,
2013-01-12 23:49:00,17.8,4.0,28.53,NW,312,3.1,3.1,54,0.00,,---,0.00,VWS V14.00,2013-01-13 05:49:00,
2013-01-12 23:54:00,17.8,4.0,28.53,NW,324,3.6,5.4,54,0.00,,---,0.00,VWS V14.00,2013-01-13 05:54:00,
2013-01-12 23:59:00,17.6,4.2,28.53,WNW,302,5.8,5.8,55,0.00,,---,0.00,VWS V14.00,2013-01-13 05:59:00,